TimeCDT,TemperatureF,Dew PointF,Humidity,Sea Level PressureIn,VisibilityMPH,Wind Direction,Wind SpeedMPH,Gust SpeedMPH,PrecipitationIn,Events,Conditions,WindDirDegrees,DateUTC
12:15 AM,33.8,33.8,100,29.78,2.5,North,21.9,32.2,N/A,Snow,Light Snow,10,2013-04-18 05:15:00
12:35 AM,33.8,33.8,100,29.76,2.5,North,20.7,32.2,N/A,,Overcast,360,2013-04-18 05:35:00
12:55 AM,33.8,33.8,100,29.77,3.0,North,21.9,28.8,N/A,Rain,Light Rain,10,2013-04-18 05:55:00
1:15 AM,33.8,33.8,100,29.78,5.0,North,19.6,28.8,N/A,,Light Drizzle,10,2013-04-18 06:15:00
1:35 AM,33.8,33.8,100,29.81,5.0,NNE,19.6,-,N/A,,Light Drizzle,20,2013-04-18 06:35:00
1:55 AM,33.8,33.8,100,29.79,3.0,North,19.6,-,N/A,Rain,Light Rain,10,2013-04-18 06:55:00
2:15 AM,33.8,33.8,100,29.80,2.5,North,19.6,-,N/A,Rain,Light Rain,360,2013-04-18 07:15:00
2:35 AM,33.8,33.8,100,29.80,2.5,North,20.7,-,N/A,Rain,Rain,360,2013-04-18 07:35:00
2:55 AM,33.8,33.8,100,29.78,2.0,North,18.4,26.5,N/A,Rain,Heavy Rain,10,2013-04-18 07:55:00
3:15 AM,33.8,33.8,100,29.75,2.5,North,21.9,-,N/A,Rain,Heavy Rain,10,2013-04-18 08:15:00
3:35 AM,33.8,33.8,100,29.74,3.0,North,25.3,-,N/A,Rain,Heavy Rain,360,2013-04-18 08:35:00
3:55 AM,32.0,32.0,100,29.71,3.0,North,23.0,34.5,0.11,,Overcast,360,2013-04-18 08:55:00
4:15 AM,32.0,32.0,100,29.72,9.0,North,20.7,-,N/A,,Overcast,10,2013-04-18 09:15:00
4:35 AM,32.0,32.0,100,29.69,4.0,NNE,20.7,27.6,N/A,,Overcast,20,2013-04-18 09:35:00
4:55 AM,32.0,32.0,100,29.68,9.0,NNE,19.6,26.5,0.02,,Overcast,20,2013-04-18 09:55:00
5:15 AM,32.0,32.0,100,29.67,10.0,North,23.0,28.8,N/A,,Overcast,10,2013-04-18 10:15:00
5:35 AM,32.0,32.0,100,29.65,10.0,NNE,20.7,28.8,N/A,,Overcast,20,2013-04-18 10:35:00
5:55 AM,32.0,32.0,100,29.68,10.0,North,17.3,23.0,N/A,,Overcast,360,2013-04-18 10:55:00
6:15 AM,32.0,32.0,100,29.67,10.0,North,19.6,29.9,N/A,,Overcast,10,2013-04-18 11:15:00
6:35 AM,32.0,32.0,100,29.68,10.0,North,19.6,25.3,N/A,Rain,Light Rain,360,2013-04-18 11:35:00
6:55 AM,32.0,32.0,100,29.68,6.0,North,16.1,24.2,N/A,Snow,Light Snow,360,2013-04-18 11:55:00
7:15 AM,32.0,32.0,100,29.66,1.0,North,18.4,25.3,N/A,Snow,Light Snow,10,2013-04-18 12:15:00
7:35 AM,32.0,32.0,100,29.66,2.0,North,-9999.0,-,N/A,,Overcast,0,2013-04-18 12:35:00
7:55 AM,32.0,32.0,100,29.66,1.0,North,19.6,-,0.04,Rain,Heavy Rain,10,2013-04-18 12:55:00
8:15 AM,32.0,32.0,100,29.67,1.8,North,-9999.0,-,N/A,,Overcast,0,2013-04-18 13:15:00
8:35 AM,32.0,32.0,100,29.69,1.0,North,-9999.0,-,N/A,Snow,Light Snow,0,2013-04-18 13:35:00
8:55 AM,32.0,32.0,100,29.70,1.2,North,-9999.0,-,0.02,Snow,Light Snow,0,2013-04-18 13:55:00
9:15 AM,32.0,32.0,100,29.69,1.0,North,-9999.0,-,N/A,Snow,Light Snow,0,2013-04-18 14:15:00
9:35 AM,32.0,32.0,100,29.67,0.5,North,-9999.0,-,N/A,Snow,Light Snow,0,2013-04-18 14:35:00
9:55 AM,32.0,32.0,100,29.66,0.2,North,-9999.0,-,0.03,Snow,Light Snow,0,2013-04-18 14:55:00
10:15 AM,32.0,32.0,100,29.66,0.8,North,-9999.0,-,N/A,Snow,Light Snow,0,2013-04-18 15:15:00
10:35 AM,32.0,32.0,100,29.67,0.5,North,-9999.0,-,N/A,Snow,Light Snow,0,2013-04-18 15:35:00
10:55 AM,32.0,32.0,100,29.66,0.5,North,-9999.0,-,0.01,Snow,Light Snow,0,2013-04-18 15:55:00
11:15 AM,32.0,32.0,100,29.66,0.5,North,-9999.0,-,N/A,Snow,Light Snow,0,2013-04-18 16:15:00
11:35 AM,32.0,32.0,100,29.66,0.8,North,-9999.0,-,N/A,Snow,Light Snow,0,2013-04-18 16:35:00
11:55 AM,32.0,32.0,100,29.65,0.5,North,-9999.0,-,0.01,Snow,Light Snow,0,2013-04-18 16:55:00
12:15 PM,32.0,32.0,100,29.64,0.5,North,-9999.0,-,N/A,Snow,Light Snow,0,2013-04-18 17:15:00
12:35 PM,32.0,32.0,100,29.64,0.5,North,-9999.0,-,N/A,Snow,Light Snow,0,2013-04-18 17:35:00
12:55 PM,32.0,32.0,100,29.63,0.5,North,-9999.0,-,0.01,Snow,Light Snow,0,2013-04-18 17:55:00
1:15 PM,32.0,32.0,100,29.62,0.5,North,-9999.0,-,N/A,Snow,Light Snow,0,2013-04-18 18:15:00
1:35 PM,32.0,32.0,100,29.62,0.5,North,-9999.0,-,N/A,Snow,Light Snow,0,2013-04-18 18:35:00
1:55 PM,32.0,32.0,100,29.62,0.5,North,-9999.0,-,N/A,Snow,Light Snow,0,2013-04-18 18:55:00
2:15 PM,32.0,32.0,100,29.64,0.8,North,-9999.0,-,N/A,Snow,Light Snow,0,2013-04-18 19:15:00
2:35 PM,32.0,32.0,100,29.64,0.8,North,-9999.0,-,N/A,Snow,Light Snow,0,2013-04-18 19:35:00
2:55 PM,32.0,32.0,100,29.64,0.8,NNW,23.0,31.1,N/A,Snow,Light Snow,330,2013-04-18 19:55:00
3:35 PM,32.0,32.0,100,29.64,1.0,North,-9999.0,-,N/A,Snow,Light Snow,0,2013-04-18 20:35:00
3:55 PM,32.0,32.0,100,29.64,1.5,North,-9999.0,-,N/A,Snow,Light Snow,0,2013-04-18 20:55:00
4:15 PM,32.0,32.0,100,29.65,1.2,North,-9999.0,-,N/A,Snow,Light Snow,0,2013-04-18 21:15:00
4:35 PM,32.0,32.0,100,29.65,2.0,WNW,18.4,33.4,N/A,Snow,Light Snow,300,2013-04-18 21:35:00
4:55 PM,32.0,32.0,100,29.66,2.5,North,-9999.0,-,N/A,Snow,Light Snow,0,2013-04-18 21:55:00
5:15 PM,32.0,32.0,100,29.66,3.0,WNW,21.9,29.9,N/A,Snow,Light Snow,300,2013-04-18 22:15:00
5:35 PM,32.0,32.0,100,29.67,1.5,NW,20.7,31.1,N/A,Snow,Light Snow,310,2013-04-18 22:35:00
5:55 PM,32.0,32.0,100,29.67,0.5,NW,26.5,35.7,N/A,Snow,Light Snow,320,2013-04-18 22:55:00
6:15 PM,32.0,32.0,100,29.68,0.5,NW,28.8,35.7,N/A,Snow,Light Snow,320,2013-04-18 23:15:00
6:35 PM,32.0,32.0,100,29.68,0.5,NW,27.6,34.5,N/A,Snow,Light Snow,320,2013-04-18 23:35:00
6:55 PM,32.0,30.2,93,29.69,0.8,NW,25.3,34.5,N/A,Snow,Light Snow,320,2013-04-18 23:55:00
7:15 PM,30.2,30.2,100,29.70,0.8,NW,27.6,-,N/A,Snow,Light Snow,310,2013-04-19 00:15:00
7:35 PM,30.2,30.2,100,29.70,1.5,NW,26.5,35.7,N/A,Snow,Light Snow,310,2013-04-19 00:35:00
7:55 PM,30.2,30.2,100,29.71,1.2,NW,29.9,38.0,N/A,Snow,Light Snow,310,2013-04-19 00:55:00
8:15 PM,30.2,30.2,100,29.71,1.2,NW,27.6,38.0,N/A,Snow,Light Snow,310,2013-04-19 01:15:00
8:35 PM,30.2,30.2,100,29.72,2.0,NW,28.8,36.8,N/A,Snow,Light Snow,310,2013-04-19 01:35:00
10:35 PM,30.2,30.2,100,29.73,5.0,NW,26.5,-,N/A,Snow,Light Snow,310,2013-04-19 03:35:00
10:55 PM,30.2,30.2,100,29.73,4.0,NW,28.8,35.7,N/A,Snow,Light Snow,310,2013-04-19 03:55:00
11:15 PM,30.2,30.2,100,29.72,4.0,NW,26.5,39.1,N/A,Snow,Light Snow,310,2013-04-19 04:15:00
11:35 PM,30.2,28.4,93,29.72,3.0,NW,25.3,35.7,N/A,Snow,Light Snow,320,2013-04-19 04:35:00
11:55 PM,30.2,28.4,93,29.72,3.0,NW,24.2,32.2,N/A,Snow,Light Snow,310,2013-04-19 04:55:00